SWM674 ENGM-ESSB

Flight info

Callsign SWM674
Flight time 0h 46m
Altitude 31000
Route MASEV4A MASEV Z183 LEGPO DCT ARS ARS9Y
Aircraft A320/M-SDE3FGHIRWY/LB1

Departure

Time 2026-05-05 19:29
Airport Oslo-Gardermoen International Airport (ENGM)

Arrival

Time 2026-05-05 20:16
Airport Stockholm-Bromma Airport (ESSB)
Time Latitude Longitude Altitude Speed Heading
2026-05-05 19:14 60.19308 11.08597 672 ft 0 kts 105°
2026-05-05 19:18 60.19309 11.08591 672 ft 2 kts 105°
2026-05-05 19:18 60.19316 11.08557 672 ft 3 kts 136°
2026-05-05 19:19 60.19329 11.08535 669 ft 2 kts 142°
2026-05-05 19:19 60.19343 11.08514 670 ft 2 kts 142°
2026-05-05 19:19 60.19356 11.08494 670 ft 2 kts 142°
2026-05-05 19:19 60.19369 11.08474 669 ft 2 kts 142°
2026-05-05 19:20 60.19382 11.08454 670 ft 2 kts 142°
2026-05-05 19:20 60.19396 11.08437 670 ft 2 kts 172°
2026-05-05 19:20 60.19397 11.08437 670 ft 0 kts 172°
2026-05-05 19:22 60.19396 11.08437 672 ft 1 kts 172°
2026-05-05 19:23 60.19388 11.08437 670 ft 3 kts 180°
2026-05-05 19:23 60.19349 11.08420 672 ft 8 kts 195°
2026-05-05 19:24 60.19275 11.08379 671 ft 14 kts 197°
2026-05-05 19:24 60.19168 11.08316 671 ft 18 kts 196°
2026-05-05 19:24 60.19029 11.08236 670 ft 23 kts 196°
2026-05-05 19:24 60.18899 11.08162 669 ft 17 kts 195°
2026-05-05 19:25 60.18773 11.08091 668 ft 21 kts 196°
2026-05-05 19:25 60.18656 11.08023 667 ft 8 kts 196°
2026-05-05 19:25 60.18592 11.07984 667 ft 11 kts 196°
2026-05-05 19:25 60.18542 11.07865 666 ft 14 kts 278°
2026-05-05 19:26 60.18567 11.07686 666 ft 5 kts 285°
2026-05-05 19:26 60.18567 11.07683 666 ft 0 kts 285°
2026-05-05 19:27 60.18570 11.07664 666 ft 3 kts 287°
2026-05-05 19:28 60.18581 11.07591 665 ft 8 kts 287°
2026-05-05 19:28 60.18602 11.07461 663 ft 7 kts 297°
2026-05-05 19:28 60.18640 11.07455 664 ft 0 kts 19°
2026-05-05 19:28 60.18652 11.07464 665 ft 7 kts 19°
2026-05-05 19:29 60.18867 11.07586 668 ft 68 kts 16°
2026-05-05 19:29 60.19526 11.07966 671 ft 127 kts 16°
2026-05-05 19:29 60.20522 11.08536 733 ft 166 kts 14°
2026-05-05 19:29 60.21599 11.09094 1502 ft 158 kts 13°
2026-05-05 19:30 60.22663 11.09700 2277 ft 159 kts 12°
2026-05-05 19:30 60.23744 11.10328 2777 ft 173 kts 13°
2026-05-05 19:30 60.24976 11.11036 3090 ft 195 kts 13°
2026-05-05 19:30 60.26401 11.11292 3437 ft 218 kts 351°
2026-05-05 19:31 60.27981 11.10823 3940 ft 242 kts 349°
2026-05-05 19:31 60.29714 11.10734 4710 ft 257 kts 12°
2026-05-05 19:31 60.31263 11.12613 5624 ft 269 kts 48°
2026-05-05 19:31 60.32043 11.16054 6564 ft 278 kts 82°
2026-05-05 19:32 60.31970 11.19974 7522 ft 282 kts 94°
2026-05-05 19:32 60.32232 11.23880 8403 ft 285 kts 65°
2026-05-05 19:32 60.33268 11.27305 9303 ft 288 kts 56°
2026-05-05 19:32 60.34272 11.30836 10147 ft 295 kts 61°
2026-05-05 19:33 60.35226 11.34696 10491 ft 319 kts 63°
2026-05-05 19:33 60.36192 11.38825 11068 ft 330 kts 63°
2026-05-05 19:33 60.37178 11.43056 11833 ft 335 kts 63°
2026-05-05 19:33 60.38198 11.47339 12626 ft 339 kts 62°
2026-05-05 19:34 60.39250 11.51635 13420 ft 343 kts 61°
2026-05-05 19:34 60.40246 11.56067 14126 ft 350 kts 69°
2026-05-05 19:34 60.40786 11.60928 14708 ft 359 kts 83°
2026-05-05 19:35 60.40115 11.71037 15837 ft 373 kts 113°
2026-05-05 19:35 60.38946 11.75770 16397 ft 378 kts 121°
2026-05-05 19:35 60.37689 11.80415 16983 ft 385 kts 121°
2026-05-05 19:35 60.36397 11.85194 17567 ft 391 kts 122°
2026-05-05 19:36 60.35107 11.89983 18501 ft 385 kts 122°
2026-05-05 19:36 60.33830 11.94741 19094 ft 389 kts 123°
2026-05-05 19:36 60.32528 11.99582 19607 ft 395 kts 123°
2026-05-05 19:36 60.31198 12.04498 20105 ft 402 kts 124°
2026-05-05 19:37 60.29851 12.09461 20587 ft 408 kts 124°
2026-05-05 19:37 60.28921 12.12879 20926 ft 413 kts 124°
2026-05-05 19:37 60.27543 12.17922 21409 ft 419 kts 125°
2026-05-05 19:37 60.25649 12.24840 22033 ft 427 kts 125°
2026-05-05 19:38 60.24200 12.30127 22511 ft 433 kts 126°
2026-05-05 19:38 60.23233 12.33652 22802 ft 437 kts 126°
2026-05-05 19:38 60.21736 12.39078 22957 ft 451 kts 126°
2026-05-05 19:38 60.20182 12.44694 23152 ft 464 kts 126°
2026-05-05 19:39 60.18736 12.50575 23546 ft 476 kts 117°
2026-05-05 19:39 60.17708 12.56968 23966 ft 486 kts 106°
2026-05-05 19:39 60.17144 12.63685 24408 ft 491 kts 98°
2026-05-05 19:39 60.16731 12.70510 24781 ft 493 kts 99°
2026-05-05 19:40 60.16307 12.77340 24897 ft 493 kts 99°
2026-05-05 19:40 60.15875 12.84164 24922 ft 493 kts 99°
2026-05-05 19:40 60.15433 12.90993 24916 ft 493 kts 99°
2026-05-05 19:40 60.14985 12.97802 24921 ft 493 kts 99°
2026-05-05 19:41 60.14532 13.04635 24918 ft 493 kts 99°
2026-05-05 19:41 60.14078 13.11434 24916 ft 493 kts 99°
2026-05-05 19:41 60.13620 13.18236 24917 ft 493 kts 100°
2026-05-05 19:41 60.13159 13.25059 24916 ft 493 kts 100°
2026-05-05 19:42 60.12698 13.31863 24912 ft 493 kts 100°
2026-05-05 19:42 60.12236 13.38682 24892 ft 492 kts 100°
2026-05-05 19:42 60.11778 13.45382 24890 ft 492 kts 100°
2026-05-05 19:42 60.11307 13.52175 24894 ft 492 kts 100°
2026-05-05 19:43 60.10833 13.58974 24894 ft 492 kts 100°
2026-05-05 19:43 60.10356 13.65756 24890 ft 492 kts 100°
2026-05-05 19:43 60.09879 13.72530 24893 ft 492 kts 100°
2026-05-05 19:43 60.09397 13.79334 24895 ft 492 kts 101°
2026-05-05 19:44 60.08913 13.86123 24895 ft 491 kts 101°
2026-05-05 19:44 60.08436 13.92791 24861 ft 478 kts 101°
2026-05-05 19:44 60.07966 13.99321 24735 ft 466 kts 101°
2026-05-05 19:44 60.07504 14.05658 24611 ft 455 kts 101°
2026-05-05 19:45 60.07044 14.11863 24349 ft 448 kts 102°
2026-05-05 19:45 60.06578 14.18021 24106 ft 447 kts 102°
2026-05-05 19:45 60.06114 14.24090 23874 ft 446 kts 102°
2026-05-05 19:45 60.05647 14.30214 23640 ft 445 kts 102°
2026-05-05 19:46 60.05183 14.36335 23398 ft 444 kts 102°
2026-05-05 19:46 60.04662 14.42394 23109 ft 439 kts 108°
2026-05-05 19:46 60.03774 14.48164 22833 ft 431 kts 117°
2026-05-05 19:46 60.02666 14.53725 22548 ft 428 kts 118°
2026-05-05 19:47 60.01572 14.59215 22266 ft 425 kts 117°
2026-05-05 19:47 60.00485 14.64684 21995 ft 422 kts 117°
2026-05-05 19:47 59.99406 14.70114 21719 ft 419 kts 117°
2026-05-05 19:47 59.98332 14.75505 21448 ft 416 kts 117°
2026-05-05 19:48 59.97261 14.80864 21169 ft 414 kts 117°
2026-05-05 19:48 59.96194 14.86186 20926 ft 411 kts 117°
2026-05-05 19:48 59.95132 14.91470 20663 ft 409 kts 117°
2026-05-05 19:48 59.94073 14.96717 20396 ft 407 kts 117°
2026-05-05 19:49 59.93018 15.01925 20142 ft 404 kts 117°
2026-05-05 19:49 59.91963 15.07119 19888 ft 402 kts 117°
2026-05-05 19:49 59.90914 15.12277 19634 ft 400 kts 117°
2026-05-05 19:49 59.89889 15.17316 19387 ft 398 kts 117°
2026-05-05 19:50 59.88835 15.22485 19133 ft 396 kts 117°
2026-05-05 19:50 59.87798 15.27554 18889 ft 394 kts 117°
2026-05-05 19:50 59.86763 15.32592 18639 ft 392 kts 117°
2026-05-05 19:50 59.85744 15.37546 18403 ft 391 kts 117°
2026-05-05 19:51 59.84716 15.42533 18153 ft 389 kts 117°
2026-05-05 19:51 59.83691 15.47478 17866 ft 386 kts 117°
2026-05-05 19:51 59.82668 15.52398 17586 ft 383 kts 117°
2026-05-05 19:51 59.81659 15.57243 17319 ft 379 kts 117°
2026-05-05 19:52 59.80651 15.62073 17028 ft 375 kts 117°
2026-05-05 19:52 59.79658 15.66835 16754 ft 371 kts 117°
2026-05-05 19:52 59.78674 15.71546 16485 ft 368 kts 116°
2026-05-05 19:52 59.77699 15.76203 16229 ft 362 kts 116°
2026-05-05 19:53 59.76735 15.80791 15903 ft 359 kts 116°
2026-05-05 19:53 59.75775 15.85341 15542 ft 357 kts 116°
2026-05-05 19:53 59.74815 15.89875 15181 ft 355 kts 116°
2026-05-05 19:53 59.73859 15.94380 14820 ft 354 kts 115°
2026-05-05 19:54 59.72907 15.98867 14470 ft 352 kts 115°
2026-05-05 19:54 59.71960 16.03330 14112 ft 349 kts 114°
2026-05-05 19:54 59.71023 16.07734 13778 ft 346 kts 114°
2026-05-05 19:54 59.70098 16.12073 13471 ft 340 kts 114°
2026-05-05 19:55 59.69172 16.16398 13017 ft 339 kts 114°
2026-05-05 19:55 59.68254 16.20665 12671 ft 335 kts 114°
2026-05-05 19:55 59.67339 16.24901 12286 ft 333 kts 114°
2026-05-05 19:55 59.66434 16.29096 11881 ft 331 kts 114°
2026-05-05 19:56 59.65530 16.33278 11476 ft 330 kts 114°
2026-05-05 19:56 59.64630 16.37442 11086 ft 328 kts 114°
2026-05-05 19:56 59.63746 16.41523 10692 ft 326 kts 114°
2026-05-05 19:56 59.62853 16.45633 10313 ft 325 kts 114°
2026-05-05 19:57 59.61964 16.49709 10025 ft 321 kts 114°
2026-05-05 19:57 59.61091 16.53703 9808 ft 313 kts 114°
2026-05-05 19:57 59.60239 16.57598 9641 ft 304 kts 114°
2026-05-05 19:57 59.59402 16.61421 9277 ft 303 kts 114°
2026-05-05 19:58 59.58422 16.65069 8910 ft 301 kts 124°
2026-05-05 19:58 59.57115 16.68211 8799 ft 294 kts 135°
2026-05-05 19:58 59.55709 16.71148 8715 ft 294 kts 134°
2026-05-05 19:58 59.54312 16.74090 8625 ft 294 kts 134°
2026-05-05 19:59 59.52916 16.77034 8520 ft 293 kts 134°
2026-05-05 19:59 59.51528 16.79962 8415 ft 293 kts 134°
2026-05-05 19:59 59.50139 16.82891 8303 ft 292 kts 134°
2026-05-05 19:59 59.48750 16.85805 8196 ft 292 kts 134°
2026-05-05 20:00 59.47360 16.88713 8097 ft 291 kts 134°
2026-05-05 20:00 59.45972 16.91612 7986 ft 291 kts 134°
2026-05-05 20:00 59.44587 16.94504 7873 ft 290 kts 134°
2026-05-05 20:00 59.43204 16.97396 7773 ft 290 kts 134°
2026-05-05 20:01 59.41842 17.00235 7669 ft 289 kts 134°
2026-05-05 20:01 59.40463 17.03102 7567 ft 289 kts 134°
2026-05-05 20:01 59.39083 17.05970 7462 ft 288 kts 134°
2026-05-05 20:01 59.37709 17.08824 7352 ft 288 kts 134°
2026-05-05 20:02 59.36336 17.11671 7255 ft 287 kts 134°
2026-05-05 20:02 59.34963 17.14516 7145 ft 287 kts 134°
2026-05-05 20:02 59.33591 17.17352 7039 ft 286 kts 134°
2026-05-05 20:02 59.32221 17.20178 6942 ft 286 kts 134°
2026-05-05 20:03 59.30854 17.22996 6845 ft 285 kts 134°
2026-05-05 20:03 59.29493 17.25801 6743 ft 284 kts 134°
2026-05-05 20:03 59.28126 17.28615 6649 ft 284 kts 134°
2026-05-05 20:03 59.26769 17.31408 6548 ft 284 kts 134°
2026-05-05 20:04 59.25412 17.34192 6449 ft 283 kts 135°
2026-05-05 20:04 59.24066 17.36944 6353 ft 283 kts 134°
2026-05-05 20:04 59.22691 17.39758 6278 ft 282 kts 134°
2026-05-05 20:04 59.21356 17.42488 6209 ft 282 kts 134°
2026-05-05 20:05 59.20180 17.45529 6142 ft 283 kts 119°
2026-05-05 20:05 59.19453 17.49086 6064 ft 282 kts 103°
2026-05-05 20:05 59.19214 17.52860 5970 ft 281 kts 91°
2026-05-05 20:05 59.19110 17.56667 5886 ft 281 kts 92°
2026-05-05 20:06 59.18998 17.60460 5780 ft 280 kts 92°
2026-05-05 20:06 59.18882 17.64247 5672 ft 280 kts 92°
2026-05-05 20:06 59.18764 17.68032 5586 ft 279 kts 92°
2026-05-05 20:06 59.18645 17.71801 5483 ft 279 kts 92°
2026-05-05 20:07 59.18523 17.75580 5388 ft 278 kts 92°
2026-05-05 20:07 59.18398 17.79330 5288 ft 278 kts 92°
2026-05-05 20:07 59.18274 17.83082 5190 ft 277 kts 92°
2026-05-05 20:07 59.18152 17.86840 5097 ft 276 kts 92°
2026-05-05 20:08 59.18031 17.90520 4974 ft 267 kts 92°
2026-05-05 20:08 59.17916 17.94090 4784 ft 262 kts 92°
2026-05-05 20:08 59.17805 17.97603 4557 ft 257 kts 92°
2026-05-05 20:08 59.17695 18.01061 4369 ft 254 kts 92°
2026-05-05 20:09 59.17583 18.04482 4175 ft 252 kts 92°
2026-05-05 20:09 59.17473 18.07852 3988 ft 252 kts 92°
2026-05-05 20:09 59.17364 18.11263 3887 ft 250 kts 91°
2026-05-05 20:09 59.17545 18.14530 3777 ft 237 kts 71°
2026-05-05 20:10 59.18251 18.17390 3684 ft 234 kts 51°
2026-05-05 20:10 59.19379 18.19625 3563 ft 230 kts 32°
2026-05-05 20:10 59.20705 18.21358 3454 ft 227 kts 24°
2026-05-05 20:10 59.22147 18.22320 3344 ft 213 kts
2026-05-05 20:11 59.23573 18.22340 3254 ft 199 kts 348°
2026-05-05 20:11 59.24863 18.21574 3076 ft 191 kts 331°
2026-05-05 20:11 59.25940 18.20170 2937 ft 183 kts 316°
2026-05-05 20:11 59.26748 18.18307 2830 ft 179 kts 304°
2026-05-05 20:12 59.27466 18.16321 2715 ft 178 kts 304°
2026-05-05 20:12 59.28181 18.14344 2636 ft 177 kts 304°
2026-05-05 20:12 59.28854 18.12482 2536 ft 162 kts 304°
2026-05-05 20:12 59.29481 18.10745 2312 ft 151 kts 304°
2026-05-05 20:13 59.30057 18.09149 2109 ft 135 kts 304°
2026-05-05 20:13 59.30577 18.07705 1893 ft 129 kts 304°
2026-05-05 20:13 59.31092 18.06274 1699 ft 128 kts 304°
2026-05-05 20:13 59.31600 18.04862 1486 ft 127 kts 304°
2026-05-05 20:14 59.32109 18.03448 1276 ft 127 kts 304°
2026-05-05 20:14 59.32620 18.02025 1065 ft 128 kts 304°
2026-05-05 20:14 59.33136 18.00589 849 ft 130 kts 305°
2026-05-05 20:14 59.33655 17.99139 619 ft 132 kts 305°
2026-05-05 20:15 59.34188 17.97655 409 ft 134 kts 306°
2026-05-05 20:15 59.34728 17.96153 208 ft 136 kts 306°
2026-05-05 20:15 59.35269 17.94645 52 ft 126 kts 306°
2026-05-05 20:15 59.35604 17.93703 54 ft 54 kts 305°
2026-05-05 20:16 59.35697 17.93529 52 ft 4 kts 39°
2026-05-05 20:16 59.35729 17.93575 51 ft 8 kts 37°
2026-05-05 20:16 59.35778 17.93644 49 ft 6 kts 35°
2026-05-05 20:16 59.35779 17.93744 49 ft 10 kts 119°
2026-05-05 20:17 59.35757 17.93833 45 ft 9 kts 95°
2026-05-05 20:17 59.35769 17.93992 41 ft 6 kts 87°
2026-05-05 20:17 59.35816 17.94107 31 ft 9 kts 33°
2026-05-05 20:17 59.35853 17.94221 30 ft 3 kts 78°
2026-05-05 20:18 59.35858 17.94280 31 ft 5 kts 85°
2026-05-05 20:18 59.35843 17.94353 31 ft 8 kts 123°
2026-05-05 20:18 59.35806 17.94459 29 ft 6 kts 127°
2026-05-05 20:18 59.35787 17.94504 28 ft 6 kts 137°
2026-05-05 20:19 59.35773 17.94512 27 ft 4 kts 186°
2026-05-05 20:19 59.35760 17.94477 28 ft 0 kts 241°
2026-05-05 20:19 59.35759 17.94476 28 ft 1 kts 240°
2026-05-05 20:19 59.35756 17.94465 28 ft 0 kts 242°
2026-05-05 20:20 59.35754 17.94458 28 ft 0 kts 242°